Regional Weather Roundup
Issued by NWS

Home | Current Version | Previous Version | Text Only | Print | Product List | Glossary On
Versions: 1 2 3 4 5 6 7 8 9 10 11 12 13 14 15 16 17 18 19 20 21 22 23 24 25 26 27 28 29 30 31 32 33 34 35 36 37 38 39 40 41 42 43 44 45 46 47 48 49 50
000
ASUS43 KMPX 112201
RWRMN
WEATHER ROUNDUP FOR MINNESOTA
NATIONAL WEATHER SERVICE TWIN CITIES/CHANHASSEN MN
500 PM CDT FRI JUL 11 2014


NOTE: "FAIR" INDICATES FEW OR NO CLOUDS BELOW 12,000 FEET WITH NO
SIGNIFICANT WEATHER AND/OR OBSTRUCTIONS TO VISIBILITY. N/A MEANS
CURRENT SKY AND/OR WEATHER CONDITIONS ARE NOT AVAILABLE.

MNZ060>063-068>070-112300-
   Twin Cities Metro

CITY           SKY/WX    TMP DP  RH WIND       PRES   REMARKS
TWIN CITIES    CLOUDY    79  69  71 W8        29.96S
ST PAUL        CLOUDY    77  69  76 S3        29.96S
CRYSTAL        CLOUDY    79  68  69 SW8       29.94F
BLAINE         CLOUDY    79  70  73 SW8       29.96S
LAKEVILLE      CLOUDY    79  70  73 CALM      29.96F
EDEN PRAIRIE   CLOUDY    79  70  74 SW5       29.95S
SOUTH ST PAUL  CLOUDY    79  68  70 S3        29.96S
LAKE ELMO      CLOUDY    77  70  78 S5        29.98S
$$
MNZ001>005-007-008-013>017-022>024-027-028-112300-
   Northwest Minnesota

CITY           SKY/WX    TMP DP  RH WIND       PRES   REMARKS
BEMIDJI        SUNNY     84  60  44 W15       29.92R
ROSEAU         SUNNY     81  57  44 W16G23    29.88F
WARROAD        MOSUNNY   81  57  44 W16       29.88S
THIEF RVR FALL SUNNY     82  50  32 W13       29.92S
CROOKSTON      SUNNY     84  54  34 NW14      29.93S
FOSSTON        SUNNY     82  57  42 NW10      29.94S
MOORHEAD       SUNNY     86  64  48 N7        29.93S
PARK RAPIDS    MOSUNNY   84  64  50 NW13      29.93S
$$
MNZ006-009>011-018-025>026-112300-
   North Central Minnesota

CITY           SKY/WX    TMP DP  RH WIND       PRES   REMARKS
BAUDETTE       SUNNY     82  52  35 NW9G20    29.88R
FLAG ISLAND    MOSUNNY   79  52  38 W20G29    29.83F HAZE
INTL FALLS     SUNNY     80  60  50 NW15G23   29.85R
WASKISH        SUNNY     81  63  54 W12       29.89R
LONGVILLE      MOSUNNY   81  70  69 CALM      29.91S
GRAND RAPIDS   MOSUNNY   81  70  69 SW8       29.90F
CRANE LAKE     LGT RAIN  64  64 100 S6        29.89F
ORR            LGT RAIN  64  61  88 NE5       29.85R
COOK           PTSUNNY   77  70  78 S6        29.89S
$$
MNZ012-019>021-037-112300-
   Northeast Minnesota

CITY           SKY/WX    TMP DP  RH WIND       PRES   REMARKS
DULUTH         DRIZZLE   72  67  84 SW9       29.94F
ELY            PTSUNNY   73  66  78 SW9       29.91S
HIBBING        PTSUNNY   79  69  71 VRB7      29.90F
EVELETH        PTSUNNY   77  70  78 SW9       29.92S
DULUTH HARBOR  CLOUDY    63  59  88 SW7       29.93S
TWO HARBORS    CLOUDY    70  64  83 SW7       29.91F
SILVER BAY     SUNNY     66  66 100 S6        29.92R
GRAND MARAIS     N/A     50  49  96 NE5       29.92S
G MARAIS ARPRT CLOUDY    64  61  88 S7        29.95S FOG
$$
MNZ029>031-032-039>041-046>048-054>057-064-112300-
   West Central Minnesota

CITY           SKY/WX    TMP DP  RH WIND       PRES   REMARKS
FERGUS FALLS   SUNNY     86  63  45 N9        29.92S
WHEATON        SUNNY     84  68  58 N5        29.94S
MORRIS         SUNNY     88  70  55 NW7       29.92F HX  92
ALEXANDRIA     MOSUNNY   83  69  62 W8        29.96S
ELBOW LAKE     FAIR      84  70  61 NW5       29.93S
WADENA         MOSUNNY   81  70  69 W8        29.93S
APPLETON       SUNNY     90  68  48 N5        29.92S HX  93
BENSON         MOSUNNY   86  72  62 CALM      29.92F HX  92
ORTONVILLE     MOSUNNY   88  68  51 N7        29.93S HX  91
MADISON        SUNNY     90  70  51 CALM      29.92F HX  95
WILLMAR        FAIR      82  70  65 SW3       29.95F
$$
MNZ033>034-036-042>043-049>051-058-059-112300-
   Central Minnesota

CITY           SKY/WX    TMP DP  RH WIND       PRES   REMARKS
ST CLOUD       PTSUNNY   82  70  66 SW9       29.94F
SAUK CENTRE    MOCLDY    81  72  74 SW6       29.95F
PAYNESVILLE    MOSUNNY   79  70  74 S5        29.96F HAZE
AITKIN         MOSUNNY   81  72  74 S8        29.92S
PINE RIVER     MOSUNNY   81  70  69 CALM      29.95S
BRAINERD       MOSUNNY   84  71  65 SW13      29.93F
STAPLES        MOSUNNY   84  68  58 W7        29.93S
LONG PRAIRIE   FAIR      81  72  74 SW7       29.95S
LITTLE FALLS   PTSUNNY   77  68  73 S6        29.94F
LITCHFIELD     MOSUNNY   82  73  74 CALM      29.95F
BUFFALO        PTSUNNY   78  68  71 S7        29.97S
MAPLE LAKE     CLOUDY    80  73  79 CALM      29.97S
$$
MNZ037-044-045-052-053-112300-
   East Central Minnesota

CITY           SKY/WX    TMP DP  RH WIND       PRES   REMARKS
PRINCETON      MOSUNNY   81  72  74 S3        29.95F
MORA           MOSUNNY   75  66  73 SW6       29.97F
CAMBRIDGE      SUNNY     79  66  65 SW5       29.94F
RUSH CITY      CLOUDY    74  67  79 CALM      29.96S
MOOSE LAKE     CLOUDY    73  68  83 S7        29.92F
HINCKLEY       CLOUDY    73  68  83 SW8       29.96S
CLOQUET        CLOUDY    72  66  83 S8        29.94F
MCGREGOR       PTSUNNY   77  70  78 S9        29.94F
$$
MNZ071>073-080-081-089-090-097-098-112300-
   Southwest Minnesota

CITY           SKY/WX    TMP DP  RH WIND       PRES   REMARKS
MONTEVIDEO     PTSUNNY   93  72  49 NE3       29.93F HX 100
GRANITE FALLS  MOSUNNY   85  70  59 CALM      29.94F
CANBY          MOSUNNY   89  68  50 N5        29.94S HX  92
MARSHALL       MOSUNNY   86  72  62 W9        29.94S HX  92
REDWOOD FALLS  MOSUNNY   83  71  67 SW8       29.94F
OLIVIA         SUNNY     82  70  65 SW3       29.94F
PIPESTONE      MOSUNNY   82  72  69 W6        29.99R
WINDOM         MOSUNNY   82  70  65 SW7       29.97F
WORTHINGTON    MOSUNNY   79  72  78 SW8       30.00S
JACKSON        MOSUNNY   81  68  65 SW7       29.99S
TRACY          MOSUNNY   84  72  66 W5        29.97S HX  90
SLAYTON        MOSUNNY   82  70  66 CALM      30.00R
$$
MNZ065>067-074>077-082>085-091>093-112300-
   South Central Minnesota

CITY           SKY/WX    TMP DP  RH WIND       PRES   REMARKS
MANKATO        CLOUDY    81  66  61 SW9       29.96F
NEW ULM        SUNNY     82  72  69 W8        29.95F
FAIRMONT       CLOUDY    82  66  57 SW7       29.97F
GLENCOE        MOSUNNY   80  69  68 SW6       29.96S
FARIBAULT      CLOUDY    82  66  57 S8        29.98S
OWATONNA       MOSUNNY   79  66  65 S13       29.99S
WASECA         CLOUDY    77  61  57 S14       29.99F
ALBERT LEA     MOSUNNY   81  66  61 S8        29.99S
$$
MNZ078>079-086>088-094>096-112300-
   Southeast Minnesota

CITY           SKY/WX    TMP DP  RH WIND       PRES   REMARKS
ROCHESTER      SUNNY     76  65  68 S21       30.03R
RED WING       CLOUDY    79  66  65 S6        29.97F
STANTON        CLOUDY    81  68  65 S9        29.96F
DODGE CENTER   MOSUNNY   79  66  65 S15G22    30.01S
WINONA         SUNNY     79  64  61 SW10      30.00F
AUSTIN         MOSUNNY   79  66  65 S10G18    30.01S
PRESTON        MOSUNNY   76  65  69 S16       30.04S
$$
ABBREVIATIONS USED IN REMARKS
   TC - TEMPERATURES IN CELSIUS
  WCI - WIND CHILL INDEX
   HX - HEAT INDEX
  VSB - VISIBILITY
$$



USA.gov is the U.S. government's official web portal to all federal, state and local government web resources and services.